Location: Los Gatos B&B
(42.6926°N, 77.0646°W)
Time: 05:50:12
(UTC-04:00)

Cosmos 2263 Rocket - Visible Passes

Search period start: 21 April 2015 00:00
Search period end: 01 May 2015 00:00
Orbit: 825 x 848 km, 71.0° (Epoch: 20 April)

Date Brightness Start Highest point End Pass type
(mag) Time Alt. Az. Time Alt. Az. Time Alt. Az.
21 Apr 3.1 04:38:47 10° NNW 04:44:13 51° ENE 04:49:38 10° SE visible
21 Apr 5.2 21:16:15 10° W 21:19:52 17° NW 21:23:18 10° N visible
22 Apr 3.2 04:22:10 10° NNW 04:27:33 47° ENE 04:32:55 10° SE visible
22 Apr 5.1 20:59:19 10° W 21:03:08 18° NW 21:06:47 10° N visible
23 Apr 3.3 04:05:33 10° NNW 04:10:52 44° ENE 04:16:10 10° SE visible
23 Apr 5.1 20:42:24 10° W 20:46:24 19° NW 20:50:15 10° N visible
24 Apr 3.4 03:48:57 10° NNW 03:54:11 41° ENE 03:59:26 10° SE visible
24 Apr 2.9 05:33:12 10° NW 05:37:59 29° WSW 05:42:39 10° SSW visible
24 Apr 5.0 20:25:30 10° W 20:29:41 20° NW 20:33:42 10° N visible
25 Apr 3.6 03:32:20 10° N 03:37:30 38° ENE 03:42:40 10° SE visible
25 Apr 2.8 05:16:28 10° NW 05:21:22 32° WSW 05:26:11 10° SSW visible
26 Apr 3.7 03:15:44 10° N 03:20:48 35° NE 03:25:54 10° ESE visible
26 Apr 2.7 04:59:44 10° NW 05:04:45 35° WSW 05:09:41 10° SSW visible
27 Apr 3.8 02:59:08 10° N 03:04:07 33° NE 03:09:07 10° ESE visible
27 Apr 2.6 04:43:01 10° NW 04:48:08 38° WSW 04:53:10 10° S visible
28 Apr 3.8 02:42:33 10° N 02:47:25 30° NE 02:52:20 10° ESE visible
28 Apr 2.5 04:26:18 10° NW 04:31:30 41° WSW 04:36:26 11° S visible
29 Apr 3.9 02:25:58 10° N 02:30:43 28° NE 02:35:31 10° ESE visible
29 Apr 2.4 04:09:35 10° NW 04:14:52 45° WSW 04:17:41 25° SSW visible
30 Apr 4.0 02:09:23 10° N 02:14:01 27° NE 02:18:13 12° ESE visible
30 Apr 2.3 03:52:53 10° NW 03:58:15 49° WSW 03:59:49 38° SSW visible
